Theta_e
343 344 345 345 345 345 347 347 346 346 346 349 349 350 351 351 353 354 353 356 356 356 356 353 353 355 356 354 352 356 361 362 358 360 357 357 361 365 364 364 366 369 369 370 365 366 367 365 367 366 364 364 363 363 356 362 366 364 366 363 358 359 355 356 355 354 352 348 351 347 349 351 351 351 350 348 347 347 349 348 349 351 352 352 354
344 343 344 344 345 345 347 347 348 344 347 349 350 350 352 352 353 355 354 355 356 355 355 353 355 353 354 354 351 352 359 355 359 360 355 359 369 366 367 367 372 371 372 373 370 365 367 365 366 366 365 365 367 367 365 366 365 364 361 359 363 356 351 350 350 353 347 342 341 341 343 347 350 349 347 346 347 347 348 351 353 349 348 349 353
343 342 345 343 345 344 346 347 347 346 347 348 351 351 351 352 355 357 355 356 356 355 356 354 355 355 354 353 352 352 359 360 360 360 360 359 363 365 369 373 369 371 373 373 370 368 367 366 366 368 366 366 366 365 364 363 363 364 363 360 353 358 353 354 352 353 343 345 345 342 338 338 344 345 344 346 345 345 347 346 348 347 346 348 354
342 343 343 343 345 345 346 346 347 347 348 348 348 349 349 353 356 357 357 358 357 356 358 357 357 357 358 359 358 356 356 361 363 363 362 361 361 364 370 372 366 366 366 366 366 369 370 367 363 364 370 370 369 365 364 362 365 363 361 360 362 348 347 346 353 351 350 344 339 338 338 337 334 338 342 343 344 344 344 343 345 345 346 347 354
344 344 344 343 344 344 346 347 347 347 347 348 348 348 346 351 356 358 357 358 358 358 359 359 359 358 358 361 360 360 359 360 361 359 361 362 360 363 366 371 367 365 366 367 365 372 372 370 367 366 367 367 368 365 362 361 360 361 365 364 357 354 344 346 349 349 351 352 344 340 338 336 336 337 338 340 342 342 342 337 340 347 342 347 350
346 346 344 344 344 346 347 348 347 347 348 349 348 347 348 350 356 359 359 358 358 360 362 359 358 358 355 355 352 355 356 354 354 355 355 355 356 359 365 365 363 367 366 368 366 367 371 373 371 367 367 368 367 363 362 363 363 362 362 361 358 360 352 345 345 351 350 353 353 349 349 340 339 340 338 333 347 342 341 338 344 344 342 345 352
345 346 345 344 345 345 346 348 349 348 350 350 348 348 350 352 357 359 359 359 359 362 362 360 360 359 358 354 353 352 353 354 356 358 356 355 356 357 363 363 364 364 365 367 369 369 373 373 371 371 366 367 367 368 364 360 358 362 359 363 361 360 355 348 347 345 351 351 347 346 348 348 345 342 335 338 335 340 342 341 338 343 343 344 345
344 344 346 345 345 345 346 349 349 348 350 350 347 347 351 355 358 358 359 359 360 363 362 361 361 359 359 355 352 353 350 353 355 360 360 358 359 360 361 364 364 366 365 371 370 370 373 371 372 369 367 365 364 363 361 360 360 364 365 368 369 363 361 353 347 346 343 347 350 347 345 346 347 346 345 341 338 337 338 342 342 343 343 342 344
347 345 345 346 345 346 349 350 350 349 348 348 347 349 351 355 359 360 360 360 360 364 363 362 362 360 359 355 352 353 353 354 356 359 360 361 361 362 362 362 364 368 368 367 369 368 369 370 371 372 366 365 365 364 361 362 363 365 365 367 367 362 361 362 356 352 348 344 349 350 348 346 344 344 342 345 341 337 333 336 339 342 342 344 346
347 348 348 348 348 349 350 352 350 348 350 351 350 350 351 356 360 361 360 359 360 363 365 363 361 361 359 358 356 354 355 356 359 357 361 362 362 365 365 367 361 363 368 371 370 370 367 370 368 368 367 362 361 363 363 362 365 367 364 363 365 363 363 362 356 358 351 351 349 352 357 349 346 344 341 340 340 345 336 335 339 338 337 343 349
347 347 348 350 350 350 352 352 351 350 351 352 350 351 353 356 360 361 361 360 361 363 365 363 362 361 360 358 357 357 357 356 356 357 358 361 362 364 365 365 363 359 362 366 368 367 368 368 365 366 364 364 364 366 366 361 363 364 363 365 367 367 364 361 361 360 355 354 349 352 351 345 345 342 344 344 341 339 340 337 338 342 338 335 346
346 346 348 350 349 350 350 352 351 350 351 351 351 351 354 357 361 363 362 362 362 363 364 362 360 361 362 361 358 359 359 355 357 356 357 359 359 362 363 362 362 362 363 363 361 363 367 365 367 366 366 366 365 367 365 363 361 364 366 366 367 366 367 364 360 356 352 356 351 348 346 347 344 344 343 344 343 344 343 341 339 340 345 342 341
348 348 347 347 348 348 349 350 351 351 351 352 352 351 353 357 361 362 363 364 364 364 364 363 361 361 361 360 360 361 360 358 358 357 358 357 357 359 364 365 362 362 361 357 359 364 366 368 367 366 367 368 369 368 370 369 367 363 367 365 367 364 365 363 361 357 353 350 346 348 346 347 346 347 346 344 346 346 345 339 342 341 339 338 347
345 348 346 345 347 348 348 349 351 350 350 352 352 353 354 356 360 362 363 364 366 365 364 362 361 362 363 362 361 361 360 359 357 355 355 357 357 357 362 361 360 360 360 361 361 365 365 366 368 369 373 372 373 375 374 370 372 367 369 367 365 366 365 363 361 356 356 354 353 350 347 347 348 344 346 345 343 343 342 344 343 342 342 341 340
346 347 348 349 350 350 351 350 353 351 351 352 352 353 356 356 360 363 364 365 366 365 365 364 361 362 363 363 362 361 360 359 357 355 356 356 355 356 359 359 359 360 361 363 367 366 366 367 366 367 369 373 373 374 372 374 373 370 370 371 368 366 366 360 357 355 351 352 354 352 351 350 350 349 347 344 349 349 348 347 345 344 341 339 336
344 345 347 350 349 350 352 350 351 352 352 353 353 354 356 358 362 364 361 365 366 366 365 364 363 362 363 364 363 362 362 359 359 358 357 356 357 356 359 363 362 362 365 364 363 367 367 367 368 364 370 368 373 373 373 370 371 369 372 370 370 365 367 363 360 356 353 354 352 354 353 349 352 349 350 349 350 352 352 351 348 348 345 340 342
344 344 345 351 349 350 353 350 348 351 353 353 355 355 357 359 363 364 363 366 365 368 365 364 365 363 363 364 362 362 360 358 354 357 353 357 359 358 356 358 363 365 364 366 363 365 365 366 365 362 364 369 366 371 370 372 374 370 369 372 368 364 366 368 364 359 361 352 353 353 353 352 353 356 353 353 355 358 354 353 351 349 351 348 344
343 346 349 352 351 350 350 351 352 350 353 353 355 353 356 361 362 361 364 363 358 366 363 364 364 364 364 364 364 362 359 357 353 354 354 354 356 358 357 357 358 360 363 362 365 363 365 365 365 365 366 365 367 368 368 371 377 369 369 373 367 371 370 371 368 365 363 360 356 353 353 351 354 353 353 350 355 359 353 352 351 352 355 351 349
339 344 347 347 348 346 348 349 350 351 354 353 353 355 356 360 356 361 362 363 365 362 361 363 364 361 361 363 363 361 359 358 354 356 356 353 352 354 353 354 356 358 360 363 362 363 363 363 365 363 365 365 365 366 368 368 372 368 368 369 369 370 373 368 372 366 364 363 361 355 356 353 357 355 356 352 354 355 353 353 354 355 354 356 354
339 344 346 348 347 351 349 353 350 351 353 352 353 355 355 354 356 356 359 362 362 360 361 361 362 361 359 364 365 365 362 359 357 356 353 353 353 352 352 350 354 354 357 359 360 360 361 361 360 359 359 361 363 361 363 367 367 366 365 364 364 370 366 366 365 365 361 361 363 363 362 360 358 357 356 354 354 357 356 353 355 355 357 358 360
338 343 346 347 348 348 349 351 350 353 354 353 353 352 354 354 354 357 360 359 357 354 359 362 361 361 360 362 362 363 360 358 356 356 356 354 355 355 352 352 355 353 355 357 360 361 361 360 359 358 356 360 363 361 362 366 367 367 366 366 365 370 368 366 366 365 364 365 366 366 365 364 363 360 358 355 353 354 356 354 356 356 353 358 358
334 336 340 342 347 347 350 351 351 347 351 351 354 356 354 350 353 352 356 359 358 356 358 361 361 359 359 360 361 362 361 359 356 354 356 355 355 355 354 354 351 354 356 354 359 360 359 358 357 358 358 357 362 364 360 361 364 365 365 361 362 369 371 366 365 364 363 363 366 367 365 363 366 362 360 356 354 352 351 352 353 353 354 354 360
331 333 334 336 340 344 348 349 349 350 351 354 354 353 352 354 356 356 356 355 356 357 358 363 361 361 361 360 360 360 360 358 354 351 352 351 354 355 356 354 351 350 355 355 354 356 358 360 359 358 360 359 363 361 361 360 362 363 364 363 359 361 362 362 362 362 362 364 362 366 364 364 362 361 361 358 355 353 352 352 351 351 353 354 357
329 331 332 334 335 337 338 343 347 350 351 350 354 352 351 354 351 349 352 357 359 355 357 362 362 360 361 361 360 358 356 356 352 350 350 349 348 351 355 354 352 348 349 355 356 355 356 360 358 358 359 360 360 360 360 359 359 361 362 362 361 360 360 361 360 360 359 360 360 362 361 360 361 360 361 360 359 356 355 356 354 356 358 357 359
325 327 329 330 330 331 332 334 338 344 346 347 350 351 351 353 350 351 354 356 358 353 353 357 361 359 359 360 359 357 355 355 353 351 349 348 347 347 350 353 352 349 347 351 355 356 358 359 357 359 359 360 359 360 360 358 357 358 360 358 358 359 358 358 358 359 358 360 360 359 359 361 362 359 360 359 358 358 357 356 355 357 357 358 360
322 324 325 325 327 328 329 331 334 335 338 342 344 345 347 349 352 350 350 352 352 354 352 354 356 356 359 358 359 358 356 355 354 351 350 349 347 346 347 350 351 349 348 346 352 353 354 358 360 361 361 361 362 361 361 360 356 355 355 356 356 357 356 358 358 356 357 358 358 359 359 360 360 359 358 358 361 360 359 357 358 358 358 360 361
320 322 324 325 326 326 327 328 330 332 333 336 338 340 343 345 346 348 350 351 353 352 353 353 353 354 355 356 357 357 357 356 355 354 352 351 349 347 346 346 349 350 348 345 346 353 354 355 359 360 359 361 361 360 363 362 359 355 354 355 352 354 355 356 357 356 354 355 356 355 358 359 360 360 359 358 360 360 359 359 361 361 361 360 359
320 321 322 323 325 326 326 326 327 328 330 332 335 336 340 342 343 346 350 351 352 354 351 352 353 354 354 355 357 358 358 360 358 359 357 352 351 350 349 348 350 349 347 347 345 348 353 354 355 358 359 360 360 361 363 363 361 355 352 352 352 352 351 352 353 355 354 352 352 354 353 355 358 361 361 361 361 359 361 360 360 361 362 361 359
320 320 322 323 323 325 325 325 326 326 327 328 330 332 336 341 344 345 346 348 351 353 356 354 352 353 355 357 360 359 359 360 360 362 360 357 355 354 355 353 354 351 349 347 346 345 349 353 354 356 357 355 353 356 358 360 361 360 354 349 351 352 351 351 352 351 353 353 351 350 351 351 359 370 366 366 364 367 360 360 363 363 364 362 362
318 319 320 322 323 324 325 326 327 326 326 325 326 329 332 336 340 343 345 347 349 351 354 355 356 355 355 357 360 361 361 362 362 363 364 362 359 359 354 354 353 351 354 354 353 349 346 349 352 354 355 351 349 349 355 348 353 360 358 349 348 352 355 353 352 352 349 350 350 350 347 362 367 372 369 364 360 362 365 365 366 365 364 364 362
318 319 319 320 321 323 325 326 326 326 326 326 326 327 330 334 340 343 345 347 349 349 350 354 355 358 357 357 358 360 360 362 364 364 365 366 363 360 359 362 358 355 358 363 357 351 348 347 349 351 352 349 346 345 343 336 338 344 357 356 352 352 356 355 353 357 355 350 347 348 350 353 369 367 370 363 359 356 357 357 356 357 363 370 364
317 319 319 319 318 320 322 324 326 327 326 327 328 329 329 331 338 341 343 347 347 348 350 353 353 354 353 355 357 355 356 357 360 360 364 366 364 363 361 360 357 356 361 355 354 355 356 351 349 349 348 349 348 343 332 333 335 335 345 358 352 351 349 350 354 354 353 353 351 347 345 345 347 352 353 368 364 354 350 351 351 352 352 351 353
318 318 320 320 319 319 320 323 324 325 327 328 329 328 328 331 333 339 343 343 344 345 347 352 354 351 350 353 353 355 357 355 359 364 364 364 364 364 362 358 355 358 357 359 361 356 357 357 354 353 349 349 349 341 329 330 332 332 334 347 349 348 347 347 349 353 354 354 353 351 348 345 342 360 361 354 368 369 350 345 348 350 351 349 342
318 318 319 320 321 321 321 322 321 323 326 328 329 329 330 332 334 337 341 343 344 345 347 348 349 349 350 350 350 352 354 357 359 361 362 363 362 362 363 360 358 358 360 359 358 359 359 361 359 358 357 353 351 344 328 327 328 329 331 340 353 348 346 345 349 348 350 353 357 355 354 353 350 352 360 358 360 364 370 367 362 362 362 359 349
317 318 318 319 320 321 321 322 321 321 321 321 324 328 331 332 332 333 335 340 343 343 343 341 341 344 345 346 350 353 355 356 358 357 355 353 357 357 358 362 362 360 357 359 359 359 360 360 359 359 358 355 353 339 327 324 324 325 328 336 355 352 352 352 350 350 355 352 359 358 360 358 360 358 353 357 358 361 366 369 370 364 362 361 362
316 317 319 319 318 319 318 321 323 320 319 320 321 322 325 329 331 331 332 334 338 339 339 340 339 339 340 343 345 347 351 354 354 353 352 355 357 357 355 358 356 359 358 359 358 361 360 360 360 359 357 357 355 335 327 322 321 322 326 347 356 356 355 355 355 355 354 357 356 359 362 362 363 365 361 348 355 365 364 364 367 369 367 363 360
317 317 317 320 321 320 320 322 321 321 320 319 322 321 322 326 328 329 332 331 332 333 334 337 338 337 338 341 344 346 348 351 355 353 350 352 353 354 356 358 357 354 355 353 354 356 362 360 359 360 358 358 358 344 325 320 319 320 328 353 356 355 356 356 356 358 357 357 356 359 364 358 360 365 355 337 337 354 364 361 362 361 361 360 361
317 318 318 320 320 320 321 321 321 321 322 321 321 322 322 324 325 326 330 332 330 330 331 333 334 334 337 339 342 343 344 348 351 351 350 352 355 355 354 358 352 352 353 356 357 357 358 359 360 359 358 359 359 350 324 318 317 318 334 354 357 355 356 356 357 359 359 359 360 358 364 360 361 364 345 334 333 350 365 361 360 358 358 357 357
316 316 317 317 319 320 321 321 321 320 321 322 322 321 320 321 323 322 324 327 330 330 330 331 331 334 336 338 340 341 342 343 345 348 353 350 350 353 356 359 356 356 356 358 357 357 357 360 358 357 359 358 359 351 326 319 317 315 333 357 356 356 355 355 355 357 359 359 359 359 357 356 358 357 338 331 329 347 364 362 361 359 355 354 356
316 317 318 318 320 320 319 318 317 321 322 322 321 321 322 322 322 321 322 323 326 328 331 332 333 333 335 337 338 342 342 343 344 346 351 356 354 352 353 357 357 358 355 356 356 358 358 358 357 359 359 359 359 361 357 318 316 314 320 355 358 355 354 355 357 357 358 360 360 361 359 334 331 332 331 327 323 327 361 363 362 359 357 354 355
315 316 318 317 317 317 317 317 319 322 321 321 321 320 322 324 324 322 322 322 324 327 328 331 334 333 334 336 337 337 338 342 345 346 349 350 349 353 353 356 355 354 354 354 355 356 357 358 359 360 359 359 360 360 360 318 314 313 315 329 356 356 357 357 357 358 358 357 359 360 361 342 326 325 325 323 319 319 334 365 364 362 361 367 365
317 317 317 316 315 317 317 317 319 319 320 320 321 321 323 324 324 324 325 324 325 325 325 328 332 332 334 336 338 339 339 339 344 347 348 346 348 350 349 357 357 355 352 352 356 356 355 356 360 361 361 359 359 352 360 327 316 313 313 316 348 356 356 358 357 359 359 359 359 360 362 350 326 323 322 321 319 319 321 356 367 339 338 338 366
315 316 316 315 315 315 316 317 317 318 318 319 319 321 322 323 324 326 326 328 327 325 326 327 329 330 332 333 336 337 339 340 343 342 342 344 346 347 349 351 353 353 352 351 355 356 357 357 359 362 360 360 361 363 340 354 318 312 311 312 323 341 335 361 356 357 358 359 361 363 363 352 323 319 318 319 319 319 323 343 333 330 329 331 348
314 314 315 315 315 316 316 317 317 319 319 320 320 320 322 323 324 328 328 329 328 327 327 326 327 327 328 330 331 335 338 340 341 342 342 343 343 347 349 351 352 353 352 352 353 356 355 354 355 355 358 361 364 361 350 337 341 312 312 310 314 320 329 352 358 356 358 359 361 362 359 337 320 313 314 316 318 320 337 326 323 327 329 335 355
314 314 316 316 315 315 315 316 317 319 320 321 320 320 321 321 324 326 327 327 326 327 327 327 327 328 328 329 330 333 335 337 338 338 341 342 343 346 347 352 354 353 354 355 356 356 356 354 354 354 356 359 361 363 364 353 333 320 312 310 312 315 318 321 351 357 360 358 344 331 324 326 323 312 313 315 317 318 318 323 322 324 333 352 355
314 315 316 315 315 316 315 314 316 317 318 320 320 320 320 321 323 325 326 326 326 326 327 327 327 327 328 329 328 327 328 331 332 336 338 340 339 341 343 348 350 350 352 352 350 353 354 354 354 355 357 356 356 358 359 358 354 340 324 312 311 312 317 318 329 348 337 334 330 326 323 326 325 321 334 341 346 345 322 319 323 328 346 351 354
314 315 315 315 315 314 315 315 315 317 317 318 319 320 321 323 323 323 323 324 325 324 324 326 328 328 330 330 329 326 325 327 328 327 329 335 340 343 345 347 350 349 350 350 352 352 352 352 353 354 357 352 352 355 356 357 364 364 358 344 327 326 317 316 329 336 332 344 349 347 347 337 336 333 334 340 340 344 340 333 335 340 346 352 353
315 315 316 315 314 314 314 315 315 317 318 319 319 320 321 322 323 323 323 324 324 325 323 325 326 327 327 328 327 329 328 325 326 328 328 333 337 341 342 342 344 346 348 346 348 348 350 351 352 356 355 351 353 354 358 354 358 361 363 364 357 351 347 345 344 345 348 351 351 342 344 354 358 358 354 355 356 359 356 351 349 348 349 351 352
313 314 314 314 314 314 315 315 315 317 318 319 320 321 322 323 323 324 325 324 323 324 325 326 325 326 326 329 328 327 327 327 327 330 334 338 337 337 336 337 342 346 345 341 339 340 344 350 354 353 353 351 351 353 357 335 342 324 342 354 357 358 357 356 347 335 349 349 347 347 349 352 354 352 352 354 354 355 356 357 358 358 355 354 354
312 313 313 313 314 314 314 315 315 317 317 318 318 319 321 321 323 324 324 323 323 323 323 322 323 323 323 324 324 324 325 327 327 328 330 331 334 322 331 337 336 333 325 319 317 334 338 340 340 343 349 349 351 358 331 313 314 315 313 312 317 320 320 340 336 322 336 342 346 349 352 352 352 354 353 352 353 355 356 356 357 346 355 356 354
311 311 311 312 312 313 314 314 315 316 316 317 317 318 319 320 321 321 321 321 322 322 322 321 322 322 322 323 323 323 325 327 327 326 325 325 328 336 312 310 317 323 319 313 311 311 312 314 329 337 338 326 322 318 312 309 309 310 308 306 304 306 306 305 308 332 339 341 343 347 347 349 351 354 354 355 355 355 356 356 358 355 356 354 352
Wind_Speed
16 16 17 17 16 15 13 13 13 13 12 13 13 13 12 11 10 10 9 10 9 8 8 8 8 7 7 7 7 6 5 5 6 5 8 10 11 6 10 11 8 8 7 6 5 2 1 3 5 3 4 3 2 2 5 4 4 3 2 2 4 2 1 1 2 1 2 3 2 2 3 3 3 3 5 4 5 4 4 3 0 3 4 3 1
17 16 17 17 15 17 14 13 14 15 13 14 14 13 12 13 12 11 9 10 9 9 8 8 8 7 6 6 6 7 5 6 5 4 5 9 6 7 8 4 6 4 4 4 6 5 3 3 4 2 2 3 3 1 1 2 3 3 4 3 4 3 3 2 2 3 3 3 3 4 3 2 2 4 5 5 4 4 4 3 3 4 5 6 5
17 17 17 16 18 18 14 14 13 15 14 15 14 13 13 12 11 10 10 9 9 9 8 8 7 7 7 6 7 5 6 5 5 5 3 7 7 6 5 4 5 4 4 4 4 3 4 4 3 4 2 3 2 3 4 4 4 3 3 3 2 2 2 1 2 3 1 3 3 3 3 3 2 5 5 4 4 4 5 5 4 5 4 4 3
17 18 18 18 17 16 15 14 14 14 14 14 14 14 13 11 11 11 10 10 9 9 9 8 8 8 7 6 6 5 5 5 4 5 4 6 6 5 6 5 4 5 5 4 4 2 3 3 4 4 3 3 3 3 4 4 4 4 5 3 1 2 3 4 3 2 3 5 4 4 5 3 3 3 4 4 4 5 7 6 4 5 4 5 2
15 17 18 18 17 17 16 15 14 14 14 14 14 14 11 14 13 13 11 10 9 9 9 8 8 7 6 6 5 4 5 4 4 5 4 6 5 5 6 5 4 4 4 4 3 4 3 2 2 3 4 4 3 4 4 5 5 5 2 2 4 2 3 2 1 3 2 1 0 1 3 2 3 5 5 0 3 4 6 5 1 2 7 2 2
13 16 18 19 18 18 17 17 16 15 15 14 14 15 14 13 14 13 11 10 10 11 10 8 8 7 7 6 7 6 5 5 6 5 6 5 6 6 7 5 5 5 5 5 4 5 4 3 2 3 4 3 3 4 4 4 3 4 4 4 3 0 1 3 2 1 4 1 1 2 3 2 3 4 1 1 4 3 3 4 4 3 4 5 3
12 15 17 18 19 19 18 17 17 16 15 14 14 15 14 15 14 14 11 10 11 11 12 9 9 8 9 9 8 7 6 5 4 5 5 5 6 5 6 7 6 6 6 5 4 4 4 3 3 3 3 4 3 1 3 4 5 3 4 2 1 2 0 1 2 4 3 3 4 4 2 2 3 1 2 2 2 4 4 6 5 3 7 7 7
12 17 14 16 18 18 19 18 16 16 16 15 15 14 15 15 15 15 11 11 10 11 12 10 9 9 9 9 8 7 7 6 6 4 4 4 4 6 6 6 6 4 5 5 5 5 4 4 4 4 3 4 3 4 4 3 4 3 3 3 2 2 1 1 2 3 3 2 2 0 3 3 2 3 0 1 2 2 2 2 6 4 4 4 2
16 9 15 17 18 17 17 17 17 17 16 16 15 14 15 15 15 14 13 12 11 14 12 11 10 9 9 9 8 6 6 6 6 5 4 4 5 5 5 7 6 4 6 6 5 5 4 4 4 3 4 3 4 4 3 3 4 4 4 3 3 3 3 1 1 2 3 4 1 1 2 3 6 3 1 2 1 1 4 2 3 4 3 3 3
8 8 7 15 17 17 17 17 17 16 16 16 15 15 15 14 15 15 14 12 12 14 13 13 11 10 10 9 9 8 6 6 6 6 5 4 5 6 5 5 5 5 6 6 6 5 5 5 5 5 3 3 4 3 3 4 4 4 5 4 4 4 3 3 3 2 3 1 4 0 1 3 2 3 5 4 3 3 2 4 5 5 2 2 2
8 10 8 13 15 17 16 18 17 16 16 16 15 15 15 15 15 16 15 12 13 13 14 14 12 11 10 10 10 10 8 7 6 7 6 6 6 6 6 4 6 6 5 4 5 6 6 5 5 5 5 6 3 2 4 4 4 5 5 4 4 4 3 3 3 3 2 3 1 1 3 3 2 1 3 4 0 2 3 2 4 3 4 5 3
12 11 11 18 17 16 19 17 16 18 16 16 16 15 15 15 15 16 15 14 13 13 14 14 13 12 11 10 11 9 9 8 7 8 8 8 7 6 5 6 5 4 6 5 5 7 6 5 5 5 3 3 4 3 4 4 5 4 4 4 4 4 3 3 4 4 4 2 5 4 5 5 3 4 4 3 2 3 3 2 2 1 3 5 5
11 13 16 15 13 17 16 18 20 17 15 18 17 16 15 15 17 16 16 15 13 14 14 14 13 12 11 11 10 9 9 8 8 8 8 7 7 7 6 6 6 5 5 5 6 8 6 5 5 4 4 3 3 3 2 2 1 4 3 5 5 5 4 4 4 4 4 5 5 5 4 4 3 2 2 5 3 1 3 2 5 2 2 2 2
14 12 12 13 11 11 16 17 17 16 18 17 17 16 15 15 16 17 16 14 14 14 14 14 14 12 12 11 10 9 9 9 8 8 8 7 7 8 7 7 7 6 6 6 6 6 6 6 6 5 4 4 4 3 2 3 3 2 4 4 5 4 4 5 4 5 5 5 4 3 5 3 2 5 2 2 4 6 4 1 1 3 7 5 2
10 9 10 10 10 7 10 12 11 15 17 17 15 15 15 16 16 17 16 16 15 14 13 14 12 12 12 11 10 9 9 9 8 8 8 8 8 8 7 7 7 7 6 6 5 6 6 6 6 6 6 5 5 5 4 4 4 3 3 4 3 4 4 4 5 5 5 5 4 4 5 4 2 3 2 3 2 1 1 2 1 3 4 2 6
12 11 11 10 10 14 11 9 13 12 17 15 14 13 15 14 16 16 16 16 15 14 13 13 12 12 12 12 11 10 9 9 8 7 7 8 8 8 7 6 6 6 6 7 7 7 7 7 7 7 6 7 6 6 6 5 5 5 4 4 4 3 4 6 5 5 5 5 6 4 4 5 2 4 3 1 1 3 2 2 1 1 3 2 3
9 11 11 12 11 10 5 9 14 12 12 14 14 14 14 14 13 14 16 15 16 15 14 12 12 12 13 13 12 11 11 11 10 11 10 9 8 7 8 8 6 6 7 7 8 7 7 7 7 7 7 7 7 7 6 5 5 5 4 4 4 5 5 4 4 4 4 5 5 6 4 4 4 2 3 3 2 3 2 2 3 2 2 3 3
2 5 6 8 8 3 2 6 8 14 15 14 12 15 13 12 13 15 15 16 16 15 14 13 14 13 13 13 13 12 12 12 11 11 10 9 9 8 8 8 9 8 7 7 7 9 7 8 6 6 7 8 7 7 7 6 5 5 5 5 5 3 4 4 4 4 4 4 4 5 6 5 5 4 4 5 0 3 4 4 4 2 2 1 1
3 9 8 8 6 8 8 10 13 13 12 10 11 9 12 13 15 14 17 16 16 14 14 13 13 11 11 12 14 13 11 11 10 9 10 10 11 10 9 8 9 9 8 6 8 8 8 8 7 7 7 7 7 7 7 6 7 6 5 6 5 5 4 4 4 4 4 4 3 4 4 4 4 5 4 5 5 5 4 5 3 0 1 1 1
8 3 8 3 5 8 10 10 17 8 1 2 8 11 14 12 14 15 15 15 16 16 15 15 14 13 12 12 12 12 11 11 10 10 10 11 10 11 11 10 10 9 8 9 8 8 9 9 8 8 8 8 8 8 8 8 7 6 6 5 5 6 6 5 5 4 4 4 4 5 5 4 4 4 4 5 4 4 3 5 4 4 3 3 2
9 11 8 5 5 6 8 11 13 8 3 2 6 6 10 12 15 12 10 14 17 18 17 14 14 13 13 14 14 13 14 12 12 12 11 11 10 10 10 10 9 9 9 10 10 9 8 9 9 8 8 8 7 7 7 7 7 7 6 5 5 7 6 5 5 5 5 4 4 5 5 5 5 5 5 5 6 5 5 5 4 4 4 4 4
10 10 12 13 11 12 9 3 3 9 8 12 4 2 0 2 4 8 12 12 16 18 15 14 13 13 14 14 14 13 13 12 13 13 13 11 11 10 10 10 10 10 9 10 10 10 9 9 9 8 8 8 7 7 8 7 7 7 7 6 6 6 7 6 5 6 6 5 5 6 6 6 6 6 6 6 6 6 7 7 6 5 5 6 5
12 12 11 10 13 14 9 6 4 4 5 7 7 4 3 5 3 9 12 18 16 11 12 11 12 11 13 13 13 13 13 14 15 13 14 14 13 12 11 11 11 11 10 10 10 10 9 10 9 8 8 8 8 9 8 7 7 8 8 7 6 7 7 7 7 7 7 7 7 7 7 7 6 6 6 6 7 6 6 6 6 6 6 6 5
13 13 12 12 13 13 13 12 9 8 7 5 3 3 4 6 9 10 12 9 15 17 14 12 12 12 13 13 12 12 14 14 14 13 15 15 13 13 12 12 12 11 11 11 10 10 10 10 11 10 9 9 9 9 9 8 8 8 8 8 7 7 7 7 7 7 8 8 8 7 7 7 6 6 6 6 6 6 6 5 5 5 4 5 5
14 15 14 15 15 15 13 13 12 10 10 11 9 4 3 2 2 7 4 7 12 7 10 12 13 14 13 13 14 13 14 15 14 13 15 15 14 14 13 13 13 12 12 11 11 10 10 11 11 11 11 10 10 10 9 9 9 9 9 9 8 8 7 8 8 7 7 7 8 9 8 8 8 8 7 7 7 8 7 6 6 6 6 6 6
13 14 15 16 13 13 14 14 12 12 11 10 10 10 10 6 5 5 5 3 9 10 6 9 11 12 12 13 13 13 14 15 14 14 15 14 14 14 14 13 13 13 13 12 12 12 11 11 11 11 11 11 10 10 10 10 10 10 10 9 9 9 9 8 8 8 8 8 8 9 9 9 8 9 8 8 7 8 7 8 8 7 6 6 6
13 14 13 13 14 15 14 13 12 12 12 11 11 10 10 9 10 2 8 10 8 7 12 10 10 12 11 12 13 13 12 13 13 14 13 12 13 14 14 14 14 13 13 13 13 13 12 12 12 12 12 12 11 11 10 11 11 10 10 10 10 10 9 9 9 9 9 9 10 9 9 10 9 9 9 9 8 9 8 8 8 8 7 7 7
12 14 15 15 14 14 14 14 15 14 13 12 11 11 10 10 9 10 11 9 7 6 8 9 7 8 10 12 12 13 13 11 12 11 12 13 13 13 13 12 12 14 14 14 14 14 13 12 13 13 13 12 12 12 11 11 11 11 10 10 10 10 10 10 10 10 10 10 10 10 10 11 11 10 10 9 9 8 7 8 8 7 7 8 8
13 13 13 13 14 13 13 14 13 14 14 13 12 11 11 9 9 9 9 10 10 8 9 6 9 10 8 8 9 10 11 11 11 10 11 12 12 11 10 10 10 12 12 13 14 14 14 13 13 13 13 13 13 13 12 12 12 12 11 12 11 11 11 10 10 10 10 10 10 10 10 11 10 11 13 10 10 6 6 8 7 7 7 8 8
12 12 12 12 13 13 12 12 13 13 13 13 12 12 11 11 9 8 9 9 9 10 8 7 6 6 8 9 7 7 7 9 9 10 9 10 11 11 11 11 11 12 10 10 11 12 13 14 14 13 13 13 12 12 12 16 14 11 12 11 11 10 11 10 10 10 11 11 12 11 11 12 10 10 12 14 13 11 7 7 5 6 8 8 8
11 11 12 12 12 12 11 12 12 12 12 11 10 10 10 11 9 8 8 8 9 9 9 9 7 7 11 12 12 9 7 7 6 8 9 9 10 10 11 10 10 11 10 9 10 12 13 13 14 14 14 13 13 12 15 17 16 15 12 12 11 10 10 10 11 10 10 11 11 12 11 11 10 9 9 12 13 14 14 13 12 11 7 6 8
11 11 11 11 11 12 12 12 11 10 10 9 9 9 9 9 8 8 7 7 7 9 10 10 8 5 8 8 4 5 10 11 10 9 7 9 9 10 10 11 12 13 11 13 14 13 11 13 12 13 14 13 13 13 15 18 18 18 15 12 12 11 11 11 12 12 11 11 12 12 12 11 11 12 12 11 12 15 15 15 15 13 14 14 10
9 10 11 10 11 11 11 10 10 9 8 9 8 9 9 9 9 8 7 7 8 8 9 10 11 9 7 6 5 5 5 7 9 8 7 9 9 10 12 12 14 13 12 12 11 13 13 13 13 12 13 14 13 14 15 18 19 19 19 16 13 12 12 12 12 12 13 11 10 11 11 11 11 13 13 13 11 12 14 17 16 16 15 15 14
9 9 10 9 9 9 9 10 9 8 9 9 9 8 7 7 8 8 8 7 7 8 7 8 9 9 6 5 7 9 8 6 7 8 8 7 7 10 9 11 10 12 11 11 13 13 12 12 12 13 12 13 14 12 16 19 19 19 19 15 14 14 13 13 12 13 12 13 12 11 10 10 12 10 8 12 11 12 11 11 11 11 11 14 16
8 9 9 9 9 9 9 9 9 9 9 9 9 8 7 8 8 9 9 8 7 7 7 7 8 7 7 9 9 8 9 9 7 5 7 10 10 8 8 8 8 9 11 11 11 12 12 12 13 13 13 14 14 14 13 18 19 20 20 15 14 14 13 12 13 13 11 13 11 12 12 13 11 10 11 10 12 12 12 11 12 13 14 13 13
8 8 7 8 9 10 10 9 8 8 8 9 10 10 9 8 8 8 8 8 8 8 8 6 4 4 4 6 8 9 10 8 5 2 7 8 7 4 5 5 9 11 8 7 11 12 12 13 14 14 14 14 14 15 15 17 18 18 19 11 12 13 13 13 13 13 13 11 12 12 11 12 12 11 12 13 12 11 12 13 13 12 12 13 13
7 8 7 6 8 9 9 8 8 8 8 9 7 9 9 8 9 8 6 8 8 8 9 8 8 7 7 6 7 8 8 9 7 5 7 7 7 7 6 5 6 9 9 10 10 12 11 13 14 14 14 13 14 13 15 17 18 19 13 10 12 12 12 13 13 13 13 13 13 13 13 13 14 13 13 13 14 12 12 13 13 13 13 12 12
6 6 6 6 8 9 8 8 8 7 9 9 8 8 7 7 9 9 7 6 7 8 9 9 8 9 9 7 6 7 8 9 10 8 8 8 7 5 5 5 7 8 9 10 10 11 12 13 14 15 15 14 15 13 15 17 18 19 16 12 11 12 12 12 13 13 12 12 13 17 15 15 14 13 14 15 14 12 12 14 13 14 14 13 12
4 6 7 8 9 9 8 7 8 8 9 9 8 8 8 8 8 9 9 8 8 9 9 8 8 9 9 9 8 7 7 8 10 9 5 7 7 7 7 6 8 9 10 11 12 12 13 12 13 15 15 16 15 14 16 17 19 19 17 11 11 11 12 12 12 12 13 12 13 13 17 16 15 15 15 13 15 12 13 14 14 13 14 14 13
5 5 7 8 7 7 8 9 9 9 9 9 8 7 8 7 8 8 8 9 9 9 9 9 9 8 8 9 9 10 9 9 9 10 8 4 6 8 8 9 10 9 11 12 13 13 13 12 14 15 14 15 16 15 13 20 20 21 22 13 11 11 13 13 13 12 11 12 13 13 13 18 20 18 15 13 13 15 14 14 13 13 13 15 12
6 7 7 6 6 6 7 8 7 8 9 8 7 8 8 7 8 8 7 8 8 8 8 9 9 9 9 8 8 8 10 10 9 9 9 9 5 7 8 8 8 10 13 13 15 14 13 13 14 14 14 15 14 15 13 18 19 21 22 19 12 14 13 12 12 11 12 12 12 12 13 15 20 20 19 17 14 16 15 13 14 13 14 8 4
7 7 6 6 6 6 7 7 7 8 8 8 8 8 8 8 8 7 8 8 8 8 8 9 9 9 9 8 7 7 7 8 9 8 9 9 8 9 8 5 6 9 12 14 13 12 14 14 13 12 12 15 15 14 15 14 20 21 22 23 15 15 14 12 12 11 12 12 12 12 12 12 18 21 21 20 19 16 18 12 15 16 15 12 10
7 7 7 8 8 8 8 8 8 8 8 7 8 9 8 8 8 9 9 8 8 9 9 9 9 9 9 9 7 7 6 5 6 9 10 10 10 10 10 10 9 11 12 14 14 13 12 12 10 9 12 13 12 10 12 9 16 19 22 22 22 17 14 12 13 12 12 12 11 12 13 13 16 19 21 21 20 20 14 13 19 17 16 14 7
6 7 7 9 8 8 9 9 9 8 7 7 7 7 8 8 10 8 8 8 8 9 9 9 9 9 10 9 9 8 7 7 6 6 8 10 10 10 10 10 10 10 11 12 11 10 10 11 11 11 12 10 8 9 10 12 6 18 18 20 22 22 16 13 13 13 12 12 12 13 11 14 14 17 19 19 19 19 15 20 19 19 18 12 7
6 7 8 8 9 10 10 10 9 9 8 8 8 8 9 9 8 8 8 8 9 9 9 9 9 9 10 10 9 8 8 8 8 7 7 8 9 10 10 10 10 10 10 10 10 9 8 10 11 11 10 9 7 8 10 10 9 13 16 19 22 23 21 17 14 14 13 13 12 7 9 7 6 14 17 17 16 18 22 20 20 20 17 10 10
6 6 8 10 10 11 11 11 10 10 9 9 9 9 11 10 9 8 8 9 9 9 9 9 10 10 10 10 11 11 10 9 9 8 8 7 9 10 10 10 10 10 10 10 9 8 8 9 8 8 7 6 6 7 8 9 10 9 8 12 15 15 17 18 15 14 16 16 14 13 9 5 2 5 6 6 7 9 16 19 19 17 11 11 11
6 7 7 8 10 11 12 12 13 12 10 10 10 9 10 10 10 10 10 9 9 10 10 10 10 9 9 9 10 10 10 10 10 10 10 9 9 9 9 9 10 10 9 9 9 9 9 8 8 7 4 5 10 8 7 7 8 5 5 8 8 9 11 7 6 9 12 10 11 10 11 11 10 7 11 10 11 10 11 10 9 9 11 11 11
7 7 7 7 8 10 12 13 13 12 11 11 11 11 11 11 11 11 11 10 10 10 10 10 11 10 10 10 10 12 13 11 11 10 9 8 8 8 9 9 9 9 9 9 9 9 9 8 8 5 5 8 6 5 2 5 10 10 7 3 3 3 4 4 5 6 7 8 10 12 12 11 11 9 8 8 10 10 10 9 10 11 12 13 14
9 9 9 8 8 9 10 12 13 12 12 12 11 11 11 11 10 11 11 10 10 11 11 12 11 10 10 9 10 10 10 10 10 9 8 7 8 9 10 10 11 10 9 9 10 11 11 9 7 7 9 8 6 7 7 4 5 4 1 4 5 4 3 3 4 4 5 6 7 10 12 12 13 16 15 15 14 14 14 14 14 13 12 13 13
10 9 10 11 11 10 10 11 11 11 12 12 13 12 11 11 10 10 10 11 11 11 12 11 11 10 10 10 10 10 10 9 9 9 9 9 10 11 10 10 12 11 12 15 12 12 12 11 13 12 10 9 9 6 5 6 10 9 5 4 4 2 4 4 2 9 9 9 10 10 9 11 14 15 16 15 15 14 14 14 13 15 15 15 13
11 12 12 12 12 12 12 12 11 11 11 11 12 12 12 12 11 11 11 11 12 11 11 11 11 10 10 10 10 11 10 10 10 11 12 12 12 9 11 15 15 15 16 17 18 19 19 16 10 10 13 16 16 16 16 14 14 16 14 13 5 6 9 12 12 6 8 10 9 8 9 10 13 16 16 16 14 14 14 14 16 16 13 14 14
Wind_Direction
169 174 168 172 166 170 160 166 167 166 163 156 164 164 164 162 163 166 166 158 163 168 176 175 170 180 177 179 172 172 181 161 170 170 169 149 156 157 162 163 189 163 157 171 126 120 234 166 142 154 150 158 151 225 137 202 158 168 126 204 178 207 182 178 109 110 107 127 188 132 129 191 168 225 227 180 174 179 136 180 124 145 128 141 113
169 174 172 175 167 169 163 168 167 170 167 164 170 166 169 164 168 167 172 164 173 172 175 186 171 182 179 178 178 171 178 172 172 173 175 122 143 158 129 208 139 141 146 128 137 197 158 106 142 146 180 145 172 166 115 113 171 189 163 170 236 169 164 183 108 102 183 148 166 145 138 154 157 213 215 174 184 151 142 121 188 184 166 156 138
171 175 175 176 169 170 167 169 172 171 171 168 171 167 172 168 167 169 170 173 178 174 179 179 184 180 185 174 184 173 170 184 169 165 176 136 146 170 105 152 146 138 141 152 155 175 145 152 145 148 184 131 166 171 178 171 186 194 184 206 180 154 184 115 121 264 228 133 111 136 126 158 179 231 212 166 184 158 170 159 179 153 108 116 172
176 177 176 177 170 171 169 172 172 172 172 170 174 171 173 173 167 172 172 178 176 176 180 180 187 174 183 186 179 176 170 183 147 143 195 110 160 153 148 150 168 149 154 163 150 131 130 165 155 143 158 152 186 178 175 184 173 188 201 180 262 174 182 163 180 129 283 118 163 174 169 140 129 144 161 170 163 158 192 141 171 130 124 103 180
178 178 177 177 174 175 170 172 174 175 175 174 178 174 176 174 169 172 174 179 178 172 179 178 178 173 189 177 183 151 173 167 164 170 187 161 169 161 154 159 164 149 150 163 137 143 156 191 144 151 150 176 178 171 182 184 184 181 199 142 196 240 146 146 192 145 79 314 182 205 122 153 153 157 129 35 215 161 124 107 352 201 123 159 242
181 184 179 176 178 172 170 175 178 177 177 176 181 176 175 170 170 174 172 179 179 172 180 178 175 176 179 178 181 174 179 178 182 186 177 170 198 144 145 163 164 154 157 160 165 153 169 169 164 158 167 174 191 196 172 166 183 186 166 203 166 294 135 161 147 42 109 103 350 43 344 70 346 9 293 103 309 55 127 84 162 151 124 154 178
212 190 182 182 179 176 174 178 179 180 178 176 181 175 175 169 171 175 173 179 178 171 179 178 174 182 185 184 188 185 184 187 189 193 185 182 130 173 145 150 169 166 162 168 156 158 164 157 168 197 170 167 196 171 175 190 174 177 160 184 168 79 174 139 182 144 88 203 195 152 165 145 147 141 64 175 125 350 334 135 112 158 162 160 169
218 192 192 189 181 180 179 176 183 181 177 177 181 175 174 169 171 175 174 178 177 170 181 179 178 184 188 194 190 196 190 184 188 188 187 179 143 160 141 152 156 185 123 164 159 161 168 160 171 197 194 173 178 190 196 194 142 151 154 135 100 147 145 229 272 99 163 262 54 212 124 20 326 244 164 92 119 141 200 163 140 144 126 116 143
196 194 195 192 185 186 180 180 184 182 178 176 181 172 172 170 171 175 175 177 176 173 181 179 182 185 186 192 192 202 188 184 179 193 164 185 147 155 162 146 157 179 155 165 172 161 176 172 176 193 200 176 201 183 199 148 160 160 167 162 176 179 193 174 225 264 260 153 164 296 312 189 205 126 119 267 301 164 136 106 70 97 107 25 62
211 200 203 213 188 185 184 180 186 185 177 176 179 171 171 170 171 175 177 178 177 175 180 179 183 182 187 194 194 190 188 184 185 175 170 172 155 158 158 134 176 169 167 159 165 172 181 171 183 190 173 222 197 169 177 146 168 165 184 188 185 193 190 188 197 217 267 7 149 86 298 302 299 197 189 154 110 291 327 147 155 148 97 92 140
206 202 192 240 200 186 180 186 187 185 179 177 180 174 171 172 172 176 177 178 177 177 180 180 184 184 186 193 193 192 187 183 185 175 176 175 181 170 169 175 139 202 156 172 159 186 180 182 190 186 184 179 219 140 190 179 173 178 185 183 191 206 197 214 213 200 225 281 151 163 232 193 201 166 334 1 108 194 300 308 120 50 107 137 30
197 208 214 215 195 188 185 187 189 185 182 179 183 178 173 174 173 175 178 180 178 179 181 184 185 184 187 190 190 195 189 185 188 181 181 182 185 181 176 173 190 183 159 167 171 199 164 187 207 168 213 166 187 203 178 199 170 170 182 179 193 213 217 221 218 209 210 204 262 183 220 228 147 231 157 159 311 4 316 319 61 233 246 110 153
184 203 196 207 199 195 191 185 186 187 188 181 183 180 176 175 174 176 178 180 179 180 183 185 186 185 188 186 190 193 192 193 189 188 184 185 189 190 175 175 179 178 153 147 211 198 159 178 194 189 175 204 196 208 164 203 237 168 170 189 192 195 210 207 217 212 209 209 214 232 223 250 170 313 208 179 126 133 243 289 343 131 200 150 10
190 196 196 196 212 222 192 187 191 188 188 184 185 182 177 176 177 179 179 181 178 182 183 186 187 187 184 186 189 186 194 195 191 196 188 186 195 193 194 189 179 185 183 183 184 181 175 175 189 190 177 184 191 194 182 192 198 219 172 201 194 198 204 204 213 207 211 214 253 270 254 237 238 197 173 251 179 192 233 31 165 310 288 116 182
186 185 196 200 208 202 231 192 190 188 191 185 184 184 176 176 176 179 179 180 180 183 183 185 188 187 183 188 186 188 193 192 197 196 194 190 194 197 189 204 181 185 185 173 185 181 187 178 183 192 184 187 188 192 197 190 192 210 190 207 215 176 213 208 207 217 213 217 242 256 294 290 315 308 265 210 340 357 338 15 35 318 314 245 149
184 182 196 189 210 220 186 224 191 195 193 189 189 183 177 177 175 180 180 179 181 182 184 187 187 186 186 187 187 188 188 195 191 196 196 194 198 194 196 206 196 173 179 176 181 181 188 185 185 196 188 189 191 197 203 196 187 204 197 196 211 179 198 198 224 219 221 210 219 233 249 269 262 247 285 308 256 40 360 345 163 235 332 339 325
180 188 191 200 194 188 187 203 195 198 202 192 181 189 172 184 171 179 182 181 181 183 184 186 186 186 188 186 189 187 191 195 192 190 195 194 190 202 190 199 197 183 178 179 182 185 186 195 193 196 190 196 195 196 202 204 187 206 198 201 212 187 194 203 212 227 221 213 211 213 229 240 256 273 279 265 63 8 296 298 328 26 51 330 305
170 210 182 179 170 101 17 310 252 194 190 198 182 190 185 165 168 181 188 183 187 185 186 185 185 188 185 188 191 193 193 198 197 188 197 187 192 196 203 192 196 194 195 179 184 181 187 197 198 204 193 198 202 197 198 202 196 215 198 196 208 206 189 201 215 224 212 229 224 203 195 219 223 238 228 260 250 165 229 239 232 154 155 298 1
54 201 189 184 149 157 170 223 263 219 193 191 196 195 183 168 175 192 189 186 183 191 187 183 187 190 187 190 190 193 197 198 202 193 193 196 195 192 205 198 196 199 194 199 186 190 190 188 203 198 202 202 201 205 197 199 203 217 203 204 193 204 207 205 214 216 228 219 218 217 215 238 247 243 261 243 220 191 219 258 267 295 232 291 265
34 120 180 156 174 179 173 196 213 191 138 239 224 196 189 180 187 193 194 194 190 193 182 186 188 190 188 184 190 192 194 199 199 198 198 196 201 196 199 201 202 196 196 194 205 194 190 194 192 207 198 199 201 206 201 198 205 212 214 214 192 197 210 217 225 214 224 211 220 221 217 223 228 238 238 248 253 245 243 233 217 226 223 236 251
48 72 115 191 216 224 199 218 208 145 164 239 238 205 233 203 198 189 204 194 199 196 185 187 184 192 186 186 187 189 193 195 200 198 203 200 197 206 198 206 195 206 198 193 199 204 200 197 205 197 205 197 198 203 206 198 200 208 220 221 209 195 210 214 220 233 235 215 218 233 227 225 228 229 228 236 237 218 213 237 246 223 238 230 221
64 61 62 78 127 188 217 220 33 129 189 161 226 139 220 25 298 234 197 229 205 188 185 180 190 186 191 189 189 187 191 193 199 196 202 201 202 199 204 204 203 198 208 200 195 201 204 203 206 203 203 199 189 205 210 205 203 205 213 207 211 204 207 223 221 218 226 238 219 226 233 231 219 229 230 236 244 233 207 217 214 231 233 234 213
48 50 56 54 53 68 106 162 144 97 88 125 167 165 77 14 320 266 233 206 202 206 184 178 185 187 192 191 195 190 191 196 198 199 200 201 199 200 199 205 208 201 198 209 200 203 202 202 210 206 201 206 191 197 210 208 207 205 212 222 214 207 213 220 217 223 226 226 229 227 230 230 226 223 224 236 243 250 247 230 224 215 219 237 233
48 48 49 47 47 46 45 63 78 88 94 84 143 148 158 181 194 236 257 234 217 192 186 178 185 191 194 195 196 198 197 199 203 203 201 203 199 198 198 205 207 211 197 198 210 203 201 199 205 209 202 208 200 203 205 208 209 208 208 211 224 214 211 219 227 228 224 225 229 233 235 235 233 230 230 233 237 244 245 253 259 264 270 261 269
46 49 46 44 43 41 39 39 38 60 69 51 45 68 113 208 176 250 284 343 315 241 182 181 191 195 195 197 200 202 202 201 207 207 205 203 203 199 195 203 206 211 209 195 197 207 205 200 205 206 206 205 208 205 209 214 209 208 210 212 213 216 219 220 222 223 227 232 232 233 231 231 229 233 229 226 229 229 238 238 233 233 238 240 244
47 49 48 46 42 41 40 36 37 34 41 50 42 32 38 23 227 223 275 290 280 310 280 201 194 205 198 198 203 206 206 205 207 212 211 207 205 205 197 196 207 209 210 208 193 198 203 203 206 208 208 206 208 209 209 216 218 211 208 216 214 216 217 220 222 223 224 227 232 230 234 232 230 232 233 229 230 235 234 233 240 241 231 230 234
46 46 50 49 43 43 41 38 44 40 36 36 34 36 33 25 29 74 237 209 182 230 265 241 204 202 206 210 201 205 209 210 208 212 216 213 212 207 206 197 198 208 208 211 203 196 198 203 203 207 209 208 208 212 211 211 220 224 215 212 219 214 219 219 221 226 227 223 227 231 230 232 233 233 235 232 225 228 236 239 231 231 244 247 240
53 47 45 44 43 40 39 37 36 38 36 34 32 27 28 29 20 10 13 11 352 316 264 255 264 236 209 207 209 203 206 211 213 210 216 222 220 218 207 207 195 202 210 211 212 199 197 202 203 205 208 208 207 210 212 214 216 221 221 217 218 224 221 220 224 223 230 232 227 228 231 225 226 229 234 236 234 233 227 233 234 234 233 236 241
52 50 47 42 42 38 36 35 37 36 32 30 27 21 17 23 23 18 10 2 345 340 347 298 246 245 254 234 218 216 210 204 213 215 213 218 226 225 223 214 206 204 206 213 214 211 200 202 205 205 206 208 209 209 211 210 213 214 223 222 219 221 226 230 228 229 225 231 240 240 235 236 222 209 216 226 241 249 241 230 227 234 235 232 236
57 48 46 43 42 41 37 37 37 37 35 31 25 16 15 15 12 14 3 1 347 340 337 328 325 304 268 256 250 254 236 211 209 215 220 219 223 230 227 224 221 216 209 212 217 215 213 204 207 207 209 210 213 214 205 203 203 211 213 223 222 222 227 230 230 233 238 233 232 238 244 238 236 214 201 205 217 239 255 267 261 228 228 232 236
62 55 47 44 42 38 38 36 35 35 36 39 25 17 16 12 16 13 356 346 347 343 336 336 338 15 17 11 345 311 276 258 241 217 217 224 226 228 234 232 227 226 222 216 222 226 222 216 209 210 213 215 217 218 193 189 196 208 217 216 225 228 223 229 234 233 234 238 239 237 242 239 218 208 201 200 209 213 226 237 252 263 270 264 247
59 56 47 43 39 39 33 29 33 32 34 37 32 30 22 17 16 17 8 353 345 344 343 343 337 41 30 8 13 353 344 322 306 274 236 227 233 231 233 231 226 226 220 221 222 225 234 233 226 219 217 219 223 221 185 184 190 197 208 219 221 224 228 227 229 233 234 234 238 240 238 239 233 224 226 203 205 211 215 221 228 238 247 249 245
49 53 53 41 36 36 37 27 25 26 29 39 38 33 26 17 11 7 5 13 11 4 357 2 15 17 32 338 317 305 268 241 259 276 285 264 242 235 235 234 228 223 222 221 225 224 224 231 238 240 233 226 227 215 181 184 188 193 200 211 228 232 230 233 231 228 233 236 237 236 242 244 249 215 205 219 209 211 215 220 222 227 234 240 248
46 45 45 37 36 29 36 30 23 19 22 31 33 35 33 24 14 9 4 5 16 24 15 13 8 9 15 312 299 297 297 288 273 272 278 287 285 265 249 249 252 231 223 228 223 224 225 225 229 233 240 243 238 221 177 181 187 193 199 200 226 233 238 240 238 237 234 232 231 237 236 238 241 243 219 212 217 219 213 213 220 223 228 232 233
45 38 36 28 30 20 30 19 23 15 24 15 22 25 24 28 19 15 6 353 22 30 34 27 12 3 356 334 330 315 294 288 288 322 315 289 282 298 310 311 270 282 257 230 231 228 226 228 229 228 229 233 233 234 180 186 186 190 194 196 218 229 236 238 240 241 243 242 236 230 232 237 237 235 238 224 222 222 221 221 217 219 221 227 225
26 30 35 21 20 14 17 8 8 11 26 16 11 12 10 19 21 18 5 358 8 21 21 30 29 11 359 337 332 334 329 320 309 224 241 254 256 267 284 301 318 299 298 310 253 238 230 227 227 230 232 231 234 219 193 184 191 192 187 194 209 221 231 238 237 237 236 235 238 238 236 235 234 236 231 226 219 222 225 227 228 225 224 224 226
22 15 22 23 17 5 10 350 7 1 19 14 10 8 3 4 11 3 5 3 8 19 9 12 360 4 10 352 343 334 324 318 299 250 252 253 253 246 220 194 210 229 228 228 253 247 237 231 229 226 230 233 236 219 195 187 187 187 177 201 208 216 224 230 237 235 234 233 232 230 232 238 235 233 229 218 219 216 229 232 233 237 237 236 232
13 360 0 14 13 355 355 345 348 2 13 0 358 6 357 12 1 352 352 360 11 13 360 359 358 360 350 347 336 334 329 322 312 294 273 273 257 243 252 223 225 240 253 254 250 249 245 239 231 228 225 228 233 225 195 190 188 179 183 196 204 212 222 226 231 231 233 234 232 229 229 232 235 236 225 212 209 205 224 233 239 243 242 241 241
7 351 6 1 352 343 330 332 342 360 357 344 352 354 354 3 1 347 347 353 6 7 354 354 351 349 347 342 341 341 338 326 322 314 303 273 262 267 251 228 234 235 240 245 244 244 240 241 240 238 226 227 233 227 196 189 186 182 190 202 205 215 222 227 228 229 227 229 233 227 225 229 233 235 231 212 203 197 221 229 236 244 248 248 244
349 2 17 342 326 316 325 339 342 359 337 335 347 343 352 355 349 339 350 348 0 357 345 342 343 340 348 341 339 341 337 335 325 318 310 279 251 269 261 248 245 247 249 245 242 243 243 241 240 238 238 229 233 234 203 188 183 185 190 199 206 213 226 225 228 232 231 228 229 233 221 218 227 233 234 215 201 203 216 228 234 238 243 246 248
344 9 350 318 318 331 337 326 343 337 328 332 341 336 338 341 331 329 340 343 350 342 337 338 335 333 335 329 328 338 337 331 325 319 317 312 280 239 241 251 266 266 259 253 250 249 249 249 244 245 244 241 242 241 223 181 188 186 192 197 206 217 222 226 230 230 234 236 233 230 237 212 212 222 225 222 202 205 215 226 229 237 240 258 336
353 339 323 332 331 335 325 325 334 319 324 334 330 327 327 325 321 324 331 334 339 333 331 328 326 322 320 321 326 328 321 322 326 325 320 314 308 297 281 263 257 267 272 268 270 264 255 253 258 257 259 252 247 247 255 193 188 188 192 196 210 220 219 225 228 235 236 239 238 237 238 217 202 211 217 219 214 205 212 220 230 234 242 257 268
335 331 345 344 337 332 330 327 322 328 331 323 323 321 318 315 312 319 319 324 329 327 324 319 315 313 314 313 313 313 312 311 312 317 316 312 309 303 293 282 273 267 266 265 263 263 264 264 270 264 256 260 262 261 253 233 189 194 191 196 207 217 211 217 235 238 238 242 239 240 242 230 196 206 211 215 213 211 208 220 230 237 239 243 250
334 339 345 343 330 329 329 324 324 323 320 322 318 313 306 305 305 312 315 314 316 318 314 308 304 305 306 307 310 308 304 299 294 290 295 294 299 296 288 281 274 268 265 262 261 259 256 258 260 264 263 266 276 271 265 276 215 193 197 200 206 215 214 221 230 246 249 250 249 247 245 243 203 202 209 213 213 208 213 219 223 231 237 238 241
344 337 346 333 329 322 317 316 320 326 324 320 315 307 307 303 311 313 310 308 308 305 302 302 301 301 302 302 302 298 294 291 289 283 276 281 285 289 290 286 274 269 267 262 263 262 263 261 263 264 270 281 306 324 319 360 354 250 215 204 206 210 219 222 229 237 251 257 270 337 5 343 226 205 207 211 213 213 214 217 218 224 228 234 229
338 335 346 331 319 316 316 316 318 319 322 320 318 315 311 312 310 306 298 295 295 297 298 298 298 294 293 295 296 297 294 290 285 285 283 274 280 273 264 269 275 275 272 271 274 272 268 269 272 277 286 304 313 297 267 252 222 175 195 212 224 229 229 225 232 250 241 242 254 277 285 302 191 201 219 217 216 210 214 219 221 220 223 227 227
331 336 332 322 324 319 319 320 318 322 321 317 315 312 308 310 306 303 301 301 304 300 294 290 286 288 290 293 295 294 297 296 294 285 273 263 258 258 258 257 260 268 272 276 272 269 266 261 261 261 253 256 255 240 248 274 289 286 240 213 196 216 226 250 280 261 278 288 285 286 271 265 285 216 209 222 226 216 201 212 222 222 225 226 224
323 318 321 317 314 315 314 315 315 316 315 313 312 312 312 312 310 306 305 303 297 296 297 296 294 293 289 287 284 280 280 281 280 278 277 279 283 294 297 291 288 285 287 287 287 285 276 271 276 273 240 244 252 272 287 262 251 257 268 272 214 186 185 185 234 256 257 257 250 253 261 266 258 250 230 232 235 229 221 202 205 209 215 220 224
314 320 320 313 315 307 306 306 306 309 310 310 308 306 307 306 306 309 309 305 300 295 292 289 288 283 277 271 271 271 266 269 271 271 273 276 279 276 272 276 283 300 313 329 327 318 313 313 308 286 272 269 255 261 260 40 70 103 211 263 264 262 260 236 237 256 267 253 255 252 256 251 250 249 249 246 242 237 233 229 223 216 213 216 219
314 312 314 312 308 308 304 303 302 303 304 304 305 304 304 305 308 309 309 303 302 298 294 290 288 286 285 285 282 280 280 278 280 284 287 280 255 238 248 270 282 277 287 293 289 285 288 297 299 291 288 286 288 302 355 326 286 293 268 194 212 316 320 302 255 190 203 232 233 245 238 248 254 249 244 239 236 233 231 227 224 220 229 238 224
316 313 311 311 309 306 304 298 296 297 297 297 299 302 303 303 304 303 302 301 301 299 294 290 289 285 291 296 295 296 296 295 292 289 288 288 291 279 237 230 239 257 260 254 252 256 265 269 264 279 283 281 285 286 287 283 282 281 281 275 266 213 234 243 237 199 204 216 229 226 233 234 247 248 245 241 234 231 227 224 232 237 224 225 233